Location: Shenandoah County Park
(38.9356°N, 78.4524°W)
Time: 15:30:14
(UTC-04:00)

Vanguard 2 Rocket - Visible Passes

Search period start: 20 May 2025 00:00
Search period end: 30 May 2025 00:00
Orbit: 554 x 3293 km, 32.9° (Epoch: 20 May)

Date Brightness Start Highest point End Pass type
(mag) Time Alt. Az. Time Alt. Az. Time Alt. Az.
20 May 8.6 00:53:11 10° WSW 01:10:19 62° S 01:20:31 10° E visible
20 May 8.0 03:11:36 10° W 03:24:58 60° S 03:32:25 10° ESE visible
20 May 9.7 21:32:05 10° SSW 21:48:40 34° SSE 22:02:01 10° E visible
20 May 9.0 23:46:27 10° SW 00:04:46 57° SSE 00:16:38 10° E visible
21 May 8.3 02:04:28 10° W 02:20:14 66° S 02:29:09 10° ESE visible
21 May 8.0 04:23:03 10° W 04:33:51 43° SSW 04:40:12 10° SE visible
21 May 10.1 20:28:17 10° S 20:42:52 26° SE 20:55:54 10° E visible
21 May 9.3 22:40:17 10° SW 22:58:54 50° SSE 23:12:19 10° E visible
22 May 8.6 00:57:18 10° WSW 01:15:01 67° S 01:25:36 10° E visible
22 May 8.1 03:16:04 10° W 03:29:41 56° SSW 03:37:22 10° ESE visible
22 May 9.6 21:34:55 10° SSW 21:52:53 42° SSE 22:07:26 10° E visible
22 May 9.0 23:50:22 10° WSW 00:09:20 64° S 00:21:41 10° E visible
23 May 8.4 02:08:50 10° W 02:24:58 65° S 02:34:09 10° ESE visible
23 May 8.3 04:27:45 10° W 04:38:20 36° SSW 04:44:48 10° SSE visible
23 May 10.0 20:30:31 10° SSW 20:46:55 34° SE 21:01:44 10° E visible
23 May 9.3 22:43:57 10° SW 23:03:18 58° SSE 23:17:22 10° E visible
24 May 8.7 01:01:34 10° W 01:19:41 69° S 01:30:36 10° ESE visible
24 May 8.3 03:20:34 10° W 03:34:16 50° SSW 03:42:11 10° SE visible
24 May 9.6 21:38:15 10° SW 21:57:05 51° SSE 22:12:33 10° E visible
24 May 9.0 23:54:29 10° WSW 00:13:54 68° S 00:26:41 10° E visible
25 May 8.5 02:13:15 10° W 02:29:36 61° SSW 02:39:04 10° ESE visible
25 May 8.6 04:32:36 10° W 04:42:38 29° SW 04:49:06 10° SSE visible
25 May 9.8 20:33:27 10° SSW 20:50:55 42° SSE 21:07:04 10° E visible
25 May 9.3 22:47:53 10° WSW 23:07:42 65° SSE 23:22:20 10° E visible
26 May 8.8 01:05:54 10° W 01:24:18 68° S 01:35:33 10° ESE visible
26 May 8.5 03:25:06 10° W 03:38:41 43° SSW 03:46:48 10° SE visible
26 May 9.5 21:41:58 10° SW 22:01:18 58° SSE 22:17:30 10° E visible
26 May 9.0 23:58:46 10° WSW 00:18:26 71° S 00:31:37 10° E visible
27 May 8.6 02:17:40 10° W 02:34:05 56° SSW 02:43:51 10° SE visible
27 May 8.9 04:37:46 10° W 04:46:44 23° SW 04:52:58 10° S visible
27 May 9.7 20:36:52 10° SW 20:54:56 50° SSE 21:12:06 10° E visible
27 May 9.3 22:52:03 10° WSW 23:12:07 69° S 23:27:13 10° E visible
28 May 8.8 01:10:17 10° W 01:28:50 65° SSW 01:40:24 10° ESE visible
28 May 8.8 03:29:46 10° W 03:42:53 36° SW 03:51:09 10° SSE visible
28 May 9.5 21:45:59 10° WSW 22:05:34 65° SSE 22:22:22 10° E visible
29 May 9.1 00:03:08 10° W 00:22:57 71° S 00:36:30 10° ESE visible
29 May 8.8 02:22:07 10° W 02:38:25 49° SSW 02:48:27 10° SE visible
29 May 9.3 04:43:33 10° W 04:50:39 17° SW 04:56:06 10° SSW visible
29 May 9.7 20:40:41 10° SW 20:59:00 57° SSE 21:16:56 10° E visible
29 May 9.3 22:56:23 10° WSW 23:16:34 72° S 23:32:04 10° E visible
